Date,TemperatureHighF,TemperatureAvgF,TemperatureLowF,DewpointHighF,DewpointAvgF,DewpointLowF,HumidityHigh,HumidityAvg,HumidityLow,PressureMaxIn,PressureMinIn,WindSpeedMaxMPH,WindSpeedAvgMPH,GustSpeedMaxMPH,PrecipitationSumIn
2013-2-1,41.1,33.9,28.5,31.5,27.4,25.3,89,78,58,30.45,30.31,10,2,17,0.00
2013-2-2,44.2,29.4,18.0,28.6,22.5,14.3,88,77,46,30.67,30.45,5,1,7,0.00
2013-2-3,40.6,29.5,20.8,26.3,20.7,16.2,85,71,46,30.55,30.22,5,1,8,0.00
2013-2-4,45.0,28.7,15.4,26.8,19.5,10.7,87,70,43,30.40,30.24,6,1,8,0.00
2013-2-5,48.4,31.0,18.0,30.7,21.3,13.4,89,70,38,30.40,30.10,6,1,8,0.00
2013-2-6,45.6,33.2,21.9,34.1,26.2,17.8,87,76,51,30.22,30.02,7,1,9,0.00
2013-2-7,45.1,32.5,22.8,29.2,22.0,16.6,86,67,37,30.35,30.13,8,2,11,0.00
2013-2-8,44.1,32.4,18.6,29.2,18.4,12.3,80,58,36,30.20,29.74,10,3,15,0.00
2013-2-9,39.6,33.6,26.9,30.3,25.2,16.0,90,71,58,29.78,29.56,8,1,15,0.03
2013-2-10,37.7,27.8,18.9,21.0,16.1,12.0,79,63,38,30.05,29.78,6,2,9,0.00
2013-2-11,31.8,25.9,17.5,22.6,17.8,10.0,85,71,61,30.30,30.02,8,2,14,0.00
2013-2-12,33.9,22.4,12.4,19.4,11.9,7.0,81,65,40,30.50,30.30,6,1,8,0.00
2013-2-13,39.9,31.2,25.3,25.4,19.2,14.3,70,61,46,30.49,30.25,6,1,11,0.00
2013-2-14,40.4,33.3,28.1,28.7,23.1,17.7,89,67,43,30.37,30.23,8,2,12,0.01
2013-2-15,39.3,31.0,24.1,21.9,18.2,14.2,78,60,41,30.60,30.37,8,2,14,0.00
2013-2-16,45.8,30.0,16.0,24.6,16.5,9.7,78,59,34,30.65,30.31,8,1,13,0.00
2013-2-17,48.7,33.4,20.2,26.1,17.8,13.6,79,56,27,30.31,29.77,8,2,12,0.00
2013-2-18,39.2,30.0,21.8,19.7,13.9,8.8,71,52,29,30.26,29.96,8,2,15,0.00
2013-2-19,45.7,28.9,14.3,18.6,11.6,5.7,73,51,26,30.27,29.85,7,2,13,0.00
2013-2-20,47.7,33.3,20.9,27.7,17.9,12.2,71,55,27,29.85,29.52,5,1,10,0.00
2013-2-21,39.3,33.0,25.6,27.8,22.1,15.8,86,65,47,29.97,29.64,10,3,17,0.00
2013-2-22,36.5,27.8,21.3,21.6,16.2,9.4,84,63,36,30.22,29.97,8,2,13,0.00
2013-2-23,37.2,25.0,15.0,27.9,17.6,7.6,91,74,55,30.21,29.83,5,1,10,0.05
2013-2-24,32.4,26.0,21.0,22.8,20.4,15.5,90,80,65,30.26,29.89,5,1,10,0.04
2013-2-25,38.3,24.3,11.5,20.5,14.2,7.3,87,68,32,30.44,30.14,7,1,12,0.00
2013-2-26,33.3,27.1,22.3,22.4,17.3,13.8,88,67,48,30.37,30.03,10,2,21,0.02
2013-2-27,37.0,24.4,11.4,16.6,11.2,2.9,82,59,32,30.58,30.37,8,2,13,0.00
2013-2-28,39.9,26.1,11.7,27.7,13.3,4.1,90,61,30,30.70,30.53,7,2,11,0.01